Location: Newark
(25.0000°N, 73.5000°E)
Time: 11:13:44
(UTC+00:00)

Altair - Pass Details

Date: 07 March 2021
Orbit: 1501 x 1683 km, 47.2° (Epoch: 15 April)

Event Time Altitude Azimuth Distance (km) Brightness Sun altitude
Rises 15:23:12 0° 300° (WNW) 4,646 11.0 -30.6°
Reaches altitude 10° 15:27:42 10° 320° (NW) 3,685 10.0 -31.6°
Maximum altitude 15:33:30 18° 359° (N) 3,154 9.2 -32.9°
Enters shadow 15:37:15 14° 26° (NNE) 3,422 9.2 -33.8°
Drops below altitude 10° 15:39:24 10° 38° (NE) 3,763 - -34.2°
Sets 15:44:05 0° 57° (ENE) 4,784 - -35.3°
